Tracking 35274 objects as of 12-Sep-2026
HD Live streaming from Space Station
objects crossing your sky now

STARLINK-30303

Track STARLINK-30303 now!
10-day predictions
STARLINK-30303 is classified as:


NORAD ID: 57677
Int'l Code: 2023-124Q
Launch date: August 22, 2023
Source: United States (US)
Launch site: AIR FORCE WESTERN TEST RANGE (AFWTR)
Your satellite tracking list
Your tracking list is empty




NASA's NSSDC Master Catalog

Two Line Element Set (TLE):
1 57677U 23124Q   26254.60521904  .00000890  00000-0  37487-4 0  9990
2 57677  53.1599  61.0448 0001093  77.3279 282.7845 15.34388545172065
Source of the keplerian elements: AFSPC